When you browse on this site, cookies collect data to enhance your experience and personalize the content and advertising you see.
Visit our Privacy Policy to learn more. By continuing to use the site, you agree to this use of cookies and data.

Météo par heure à Shajenn

Ce jour, 11 Juillet, Samedi

Heure Température Précipitation Vent Pression Humidité
00:00 +20°C° 0 mm 7 m/s 614 mmHg 53%
01:00 +17°C° 0 mm 7 m/s 614 mmHg 64%
02:00 +16°C° 0 mm 6 m/s 614 mmHg 75%
03:00 +16°C° 0 mm 6 m/s 614 mmHg 78%
04:00 +15°C° 0 mm 5 m/s 614 mmHg 81%
05:00 +14°C° 0 mm 5 m/s 614 mmHg 84%
06:00 +17°C° 0 mm 3 m/s 615 mmHg 71%
07:00 +19°C° 0 mm 2 m/s 616 mmHg 57%
08:00 +22°C° 0 mm 1 m/s 617 mmHg 44%
09:00 +24°C° 0 mm 2 m/s 617 mmHg 37%
10:00 +26°C° 0 mm 2 m/s 617 mmHg 31%
11:00 +28°C° 0 mm 3 m/s 618 mmHg 24%
12:00 +30°C° 0 mm 3 m/s 618 mmHg 22%
13:00 +31°C° 0 mm 3 m/s 617 mmHg 20%
14:00 +33°C° 0 mm 4 m/s 617 mmHg 17%
15:00 +33°C° 0 mm 4 m/s 617 mmHg 19%
16:00 +32°C° 0 mm 5 m/s 616 mmHg 20%
17:00 +32°C° 0 mm 5 m/s 616 mmHg 21%
18:00 +29°C° 0 mm 5 m/s 615 mmHg 26%
19:00 +27°C° 0 mm 5 m/s 615 mmHg 31%
20:00 +23°C° 0 mm 4 m/s 614 mmHg 36%
21:00 +22°C° 0 mm 4 m/s 614 mmHg 37%
22:00 +21°C° 0 mm 4 m/s 613 mmHg 38%
23:00 +20°C° 0 mm 4 m/s 613 mmHg 39%

Demain, 12 Juillet, Dimanche

Heure Température Précipitation Vent Pression Humidité
00:00 +20°C° 0 mm 3 m/s 613 mmHg 40%
01:00 +19°C° 0 mm 3 m/s 612 mmHg 41%
02:00 +19°C° 0 mm 3 m/s 612 mmHg 42%
03:00 +18°C° 0 mm 3 m/s 611 mmHg 43%
04:00 +18°C° 0 mm 2 m/s 611 mmHg 44%
05:00 +17°C° 0 mm 2 m/s 611 mmHg 45%
06:00 +21°C° 0 mm 3 m/s 612 mmHg 36%
07:00 +25°C° 0 mm 4 m/s 614 mmHg 27%
08:00 +28°C° 0 mm 5 m/s 615 mmHg 18%
09:00 +30°C° 0 mm 5 m/s 615 mmHg 16%
10:00 +32°C° 0 mm 5 m/s 615 mmHg 14%
11:00 +34°C° 0 mm 4 m/s 615 mmHg 12%
12:00 +34°C° 0 mm 4 m/s 615 mmHg 12%
13:00 +35°C° 0 mm 4 m/s 614 mmHg 11%
14:00 +36°C° 0 mm 4 m/s 614 mmHg 11%
15:00 +34°C° 0 mm 5 m/s 613 mmHg 15%
16:00 +33°C° 0 mm 5 m/s 612 mmHg 19%
17:00 +32°C° 0 mm 6 m/s 612 mmHg 23%
18:00 +29°C° 0 mm 8 m/s 611 mmHg 27%
19:00 +26°C° 0 mm 10 m/s 611 mmHg 32%
20:00 +23°C° 0 mm 11 m/s 610 mmHg 36%
21:00 +23°C° 0 mm 9 m/s 610 mmHg 36%
22:00 +23°C° 0 mm 7 m/s 610 mmHg 35%
23:00 +22°C° 0 mm 5 m/s 610 mmHg 35%

Après-demain, 13 Juillet, Lundi

Heure Température Précipitation Vent Pression Humidité
00:00 +22°C° 0 mm 4 m/s 610 mmHg 35%
01:00 +21°C° 0 mm 4 m/s 609 mmHg 35%
02:00 +21°C° 0 mm 4 m/s 609 mmHg 35%
03:00 +21°C° 0 mm 4 m/s 609 mmHg 35%
04:00 +21°C° 0 mm 4 m/s 609 mmHg 36%
05:00 +21°C° 0 mm 4 m/s 609 mmHg 37%
06:00 +23°C° 0 mm 4 m/s 610 mmHg 33%
07:00 +27°C° 0 mm 4 m/s 611 mmHg 30%
08:00 +29°C° 0 mm 3 m/s 611 mmHg 26%
09:00 +30°C° 0 mm 4 m/s 611 mmHg 24%
10:00 +33°C° 0 mm 5 m/s 611 mmHg 22%
11:00 +34°C° 0 mm 6 m/s 611 mmHg 19%
12:00 +30°C° 0.5 mm 6 m/s 610 mmHg 30%
13:00 +27°C° 0.5 mm 7 m/s 609 mmHg 41%
14:00 +23°C° 0.5 mm 7 m/s 608 mmHg 51%
15:00 +22°C° 0.5 mm 7 m/s 608 mmHg 53%
16:00 +22°C° 0.5 mm 6 m/s 608 mmHg 55%
17:00 +21°C° 0.5 mm 5 m/s 608 mmHg 57%
18:00 +20°C° 0.1 mm 6 m/s 608 mmHg 60%
19:00 +20°C° 0.1 mm 6 m/s 608 mmHg 62%
20:00 +18°C° 0.1 mm 7 m/s 608 mmHg 64%
21:00 +19°C° 0 mm 6 m/s 608 mmHg 64%
22:00 +19°C° 0 mm 6 m/s 609 mmHg 63%
23:00 +19°C° 0 mm 5 m/s 609 mmHg 63%

14 Juillet, Mardi

Heure Température Précipitation Vent Pression Humidité
00:00 +17°C° 0 mm 6 m/s 609 mmHg 66%
01:00 +16°C° 0 mm 7 m/s 609 mmHg 68%
02:00 +15°C° 0 mm 8 m/s 608 mmHg 71%
03:00 +13°C° 0 mm 8 m/s 608 mmHg 74%
04:00 +12°C° 0 mm 8 m/s 608 mmHg 78%
05:00 +11°C° 0 mm 7 m/s 608 mmHg 82%
06:00 +12°C° 0 mm 7 m/s 609 mmHg 78%
07:00 +14°C° 0 mm 6 m/s 610 mmHg 75%
08:00 +15°C° 0 mm 6 m/s 610 mmHg 72%
09:00 +17°C° 0 mm 5 m/s 611 mmHg 65%
10:00 +19°C° 0 mm 4 m/s 611 mmHg 59%
11:00 +21°C° 0 mm 4 m/s 611 mmHg 52%
12:00 +22°C° 0 mm 4 m/s 611 mmHg 49%
13:00 +23°C° 0 mm 5 m/s 611 mmHg 45%
14:00 +26°C° 0 mm 5 m/s 612 mmHg 42%
15:00 +26°C° 0 mm 6 m/s 611 mmHg 43%
16:00 +26°C° 0 mm 6 m/s 611 mmHg 45%
17:00 +26°C° 0 mm 7 m/s 610 mmHg 47%
18:00 +23°C° 0.1 mm 6 m/s 610 mmHg 57%
19:00 +21°C° 0.1 mm 6 m/s 609 mmHg 68%
20:00 +19°C° 0.1 mm 6 m/s 609 mmHg 78%
21:00 +17°C° 0.5 mm 5 m/s 609 mmHg 82%
22:00 +17°C° 0.5 mm 5 m/s 609 mmHg 87%
23:00 +16°C° 0.5 mm 5 m/s 609 mmHg 91%

15 Juillet, Mercredi

Heure Température Précipitation Vent Pression Humidité
00:00 +17°C° 0.3 mm 4 m/s 609 mmHg 91%
01:00 +17°C° 0.3 mm 4 m/s 609 mmHg 91%
02:00 +15°C° 0.3 mm 4 m/s 609 mmHg 91%
03:00 +15°C° 0 mm 4 m/s 609 mmHg 78%
04:00 +15°C° 0 mm 4 m/s 609 mmHg 65%
05:00 +15°C° 0 mm 4 m/s 609 mmHg 52%
06:00 +18°C° 0 mm 4 m/s 610 mmHg 45%
07:00 +20°C° 0 mm 5 m/s 611 mmHg 39%
08:00 +23°C° 0 mm 6 m/s 612 mmHg 33%
09:00 +24°C° 0 mm 6 m/s 613 mmHg 28%
10:00 +27°C° 0 mm 6 m/s 613 mmHg 24%
11:00 +29°C° 0 mm 5 m/s 613 mmHg 20%
12:00 +29°C° 0 mm 5 m/s 613 mmHg 21%
13:00 +30°C° 0 mm 5 m/s 612 mmHg 22%
14:00 +30°C° 0 mm 5 m/s 612 mmHg 24%
15:00 +30°C° 0 mm 5 m/s 611 mmHg 26%
16:00 +29°C° 0 mm 4 m/s 611 mmHg 28%
17:00 +28°C° 0 mm 3 m/s 611 mmHg 31%
18:00 +26°C° 0.1 mm 3 m/s 610 mmHg 37%
19:00 +24°C° 0.1 mm 3 m/s 609 mmHg 43%
20:00 +21°C° 0.1 mm 3 m/s 609 mmHg 49%
21:00 +20°C° 0.3 mm 4 m/s 609 mmHg 57%
22:00 +17°C° 0.3 mm 5 m/s 609 mmHg 65%
23:00 +16°C° 0.3 mm 6 m/s 609 mmHg 73%

16 Juillet, Jeudi

Heure Température Précipitation Vent Pression Humidité
00:00 +16°C° 0 mm 6 m/s 609 mmHg 72%
01:00 +15°C° 0 mm 5 m/s 609 mmHg 71%
02:00 +15°C° 0 mm 4 m/s 609 mmHg 70%
03:00 +15°C° 0 mm 5 m/s 609 mmHg 64%
04:00 +15°C° 0 mm 6 m/s 610 mmHg 58%
05:00 +15°C° 0 mm 7 m/s 610 mmHg 53%
06:00 +16°C° 0 mm 7 m/s 611 mmHg 56%
07:00 +17°C° 0 mm 7 m/s 611 mmHg 60%
08:00 +18°C° 0 mm 8 m/s 612 mmHg 64%
09:00 +21°C° 0 mm 7 m/s 613 mmHg 56%
10:00 +23°C° 0 mm 7 m/s 613 mmHg 47%
11:00 +26°C° 0 mm 6 m/s 614 mmHg 38%
12:00 +27°C° 0 mm 6 m/s 614 mmHg 36%
13:00 +27°C° 0 mm 5 m/s 614 mmHg 34%
14:00 +28°C° 0 mm 5 m/s 614 mmHg 32%
15:00 +28°C° 0 mm 5 m/s 613 mmHg 32%
16:00 +28°C° 0 mm 4 m/s 613 mmHg 33%
17:00 +28°C° 0 mm 4 m/s 613 mmHg 34%
18:00 +26°C° 0 mm 5 m/s 613 mmHg 41%
19:00 +22°C° 0 mm 6 m/s 612 mmHg 48%
20:00 +20°C° 0 mm 6 m/s 612 mmHg 54%
21:00 +20°C° 0 mm 6 m/s 612 mmHg 55%
22:00 +19°C° 0 mm 6 m/s 612 mmHg 56%
23:00 +19°C° 0 mm 6 m/s 611 mmHg 57%
Voir plus